Flag for Ukraine Weather past 2 weeks in Odesa, Ukraine

Now
75 °F

Sunny.


Feels Like: 78 °F
Forecast: 63 / 72 °F
Wind: 6 mph from North

Location: Odesa Airport

Current Time: Jul 1, 2015 at 10:23:54 AM

Latest Report: Jul 1, 2015 at 10:00 AM


Visibility: 10 mi

Pressure: 30.12 "Hg

Humidity: 44%

Dew point: 52 °F

Location of OdesaLocation

Historic Weather in Odesa — Graph

°F

Odesa temperature yesterday

Maximum temperature yesterday: 81 °F (at 5:00 PM)
Minimum temperature yesterday: 55 °F (at 4:00 AM)
Average temperature yesterday: 69 °F

Past Weeks' High & Low Weather Summary

 TemperatureHumidityPressure
High88 °F (Jun 25, 2:00 PM)100% (Jun 23, 5:30 AM)30.09 "Hg (Jun 23, 5:30 AM)
Low54 °F (Jun 20, 2:30 AM)26% (Jun 29, 4:30 PM)29.68 "Hg (Jun 19, 6:30 PM)
Average69 °F62%29.83 "Hg
* Reported Jun 16 9:00 AM — Jul 1 9:00 AM, Odesa, Weather by CustomWeather, © 2015

Note: Actual official high and low records may vary slightly from our data, if they occured in-between our weather recording intervals... More about our weather records

Advertising

Odesa weather history for previous 24 hours

 ConditionsComfort  
Time TempWeatherWind HumidityBarometerVisibility
9:00 AM
Wed, Jul 1
75 °FPassing clouds.3 mph47%30.09 "HgN/A
8:30 AM72 °FSunny.3 mph57%30.09 "Hg10 mi
8:00 AM70 °FSunny.No wind60%30.09 "Hg10 mi
7:00 AM66 °FSunny.No wind73%30.09 "Hg10 mi
6:30 AM61 °FSunny.No wind83%30.09 "Hg10 mi
6:00 AM57 °FClear.No wind82%30.09 "Hg10 mi
5:30 AM55 °FClear.No wind88%30.07 "Hg10 mi
5:00 AM55 °FClear.No wind88%30.07 "Hg10 mi
4:30 AM57 °FClear.No wind77%30.07 "Hg10 mi
4:00 AM59 °FClear.No wind77%30.07 "Hg10 mi
3:30 AM57 °FClear.No wind77%30.07 "Hg10 mi
3:00 AM59 °FClear.No wind77%30.07 "Hg10 mi
2:30 AM59 °FClear.No wind77%30.07 "Hg10 mi
2:00 AM59 °FClear.No wind77%30.07 "Hg10 mi
1:30 AM61 °FClear.No wind72%30.07 "Hg10 mi
1:00 AM59 °FClear.No wind77%30.07 "Hg10 mi
12:30 AM64 °FClear.No wind64%30.07 "Hg10 mi
12:00 AM64 °FClear.No wind68%30.07 "Hg10 mi
11:30 PM
Tue, Jun 30
66 °FClear.No wind60%30.07 "Hg10 mi
11:00 PM66 °FClear.1 mph60%30.07 "Hg10 mi
10:30 PM68 °FPassing clouds.6 mph60%30.07 "HgN/A
10:00 PM68 °FPassing clouds.6 mph64%30.04 "HgN/A
9:30 PM70 °FPassing clouds.6 mph60%30.04 "HgN/A
9:00 PM70 °FPassing clouds.6 mph64%30.04 "HgN/A
8:00 PM73 °FPassing clouds.6 mph50%30.01 "HgN/A
7:30 PM77 °FPassing clouds.6 mph42%30.01 "HgN/A
7:00 PM77 °FSunny.6 mph42%29.98 "Hg10 mi
6:00 PM81 °FPassing clouds.10 mph30%29.98 "HgN/A
5:30 PM81 °FPassing clouds.13 mph32%29.98 "HgN/A
5:00 PM81 °FPassing clouds.10 mph32%29.98 "HgN/A
4:00 PM79 °FPassing clouds.13 mph32%29.98 "HgN/A
3:30 PM79 °FPassing clouds.8 mph34%29.98 "HgN/A
3:00 PM79 °FPassing clouds.10 mph34%29.98 "HgN/A
2:30 PM79 °FPassing clouds.8 mph32%29.98 "HgN/A
2:00 PM79 °FPassing clouds.13 mph32%29.98 "HgN/A
1:30 PM77 °FSunny.10 mph34%29.98 "Hg10 mi
1:00 PM77 °FPassing clouds.10 mph36%29.98 "HgN/A
12:30 PM77 °FPassing clouds.13 mph36%29.98 "HgN/A
12:00 PM77 °FPassing clouds.13 mph39%29.98 "HgN/A
11:30 AM77 °FPassing clouds.13 mph39%29.98 "HgN/A
11:00 AM75 °FPassing clouds.13 mph39%29.98 "HgN/A
10:30 AM75 °FPassing clouds.10 mph41%29.98 "HgN/A
10:00 AM73 °FPassing clouds.13 mph47%29.98 "HgN/A
Weather by CustomWeather, © 2015

See weather overviewHow to use our weather pages